"Pseudo-MPEC" for P10NVCW

Created 2019 May 21 9:07:18 UT using Find_Orb

Click here for an explanation of pseudo-MPECs

 
 Astrometry: 
     P10NVCW  C2019 05 127gFtVxHHMl@GsJDP`C1CjxR-0H!s:h?4y=,!?Zm_'A/%qcen%PkpF51
     P10NVCW  C2019 05 12NwW9FX2`!,AstrometryNT#ZUCn#(uxlIU@r5pc_y;8aNJ!)0O]4F51
     P10NVCW  C2019 05 12cm12J9-H_bqo\i*RSCQn_C/gH0qX9.redacted;FVUWB%KPM0lE%F51
     P10NVCW |C2019 05 15N4cZA,fiE/Rg1^j/F6@Hb[sl/]8.=fB!gAaclickf*nS0k,@8v:n807
     P10NVCW |C2019 05 15xOqI8UaFL(CR);sJ`hereTpfor9explanationJ[+VUw-oE+KNWt807
     P10NVCW |C2019 05 15gf\g8d0DGKK(XYRK*30:B-G7,-c[d]*?iB]T@*%8Uap5:B?',YJn807

Station data:
(807) Cerro Tololo Observatory, La Serena  (S30.169136 W70.805900)  Chile.
(F51) Pan-STARRS 1, Haleakala  (N20.707235 W156.255910)  US/Hawaii.
   Observers N. Primak, A. Schultz, S. Watters, J. Thiel, T. Goggia. Measurer
   PS1 Science Consortium. 1.8-m Ritchey-Chrétien + CCD.

Orbital elements:  P10NVCW
   Perihelion 2018 May 2.479623 +/- 326 TT = 11:30:39 (JD 2458240.979623)
Epoch 2019 May 15.0 TT = JDT 2458618.5   Earth MOID: 0.5587   Ma: 0.0464
M 151.98249674 +/- 120              (J2000 ecliptic)          AutoNEOCP
n   0.40258090 +/- 0.185            Peri.  334.73211 +/- 54
a   1.81649384 +/- 0.557            Node   100.39560 +/- 21
e   0.1584730 +/- 0.233             Incl.   23.55131 +/- 24
P   2.45/894.21d           H 19.6   G  0.15   U 11.6  SR
q 1.52862843 +/- 0.58    Q 2.10435925 +/- 22.1
From 6 observations 2019 May 12-15; mean residual 0".19
Residuals in arcseconds: 
190512 F51  .20-  .02+    190512 F51  .27+  .23+    190515 807  .06-  .03+    
190512 F51  .08-  .25-    190515 807  .32+  .13-    190515 807  .26-  .10+    

Ephemerides (geocentric):
Date (UTC) HH   RA              Dec         delta   r     elong  mag " sig PA
---- -- -- --  -------------   -----------  ------ ------ -----  --- ---- ---
2019 05 21 09  16 08 22.878   +09 59 30.34  1.1466 2.0833 149.6 22.3  421 151
2019 05 21 10  16 08 19.293   +09 59 15.49  1.1466 2.0833 149.6 22.3  426 151
2019 05 21 11  16 08 15.708   +09 59 00.60  1.1466 2.0834 149.6 22.3  431 151
2019 05 21 12  16 08 12.123   +09 58 45.67  1.1466 2.0834 149.6 22.3  436 151
2019 05 21 13  16 08 08.537   +09 58 30.69  1.1466 2.0834 149.6 22.3  442 151
2019 05 21 14  16 08 04.951   +09 58 15.67  1.1466 2.0835 149.6 22.3  447 151
2019 05 21 15  16 08 01.364   +09 58 00.61  1.1466 2.0835 149.6 22.3  452 151
2019 05 21 16  16 07 57.778   +09 57 45.51  1.1466 2.0835 149.6 22.3  457 151
2019 05 21 17  16 07 54.191   +09 57 30.36  1.1466 2.0835 149.6 22.3  462 151
2019 05 21 18  16 07 50.604   +09 57 15.18  1.1466 2.0836 149.6 22.3  467 151
2019 05 21 19  16 07 47.016   +09 56 59.95  1.1466 2.0836 149.6 22.3  473 151
2019 05 21 20  16 07 43.429   +09 56 44.68  1.1466 2.0836 149.6 22.3  478 150
2019 05 21 21  16 07 39.841   +09 56 29.36  1.1466 2.0836 149.6 22.3  483 150
2019 05 21 22  16 07 36.253   +09 56 14.01  1.1466 2.0837 149.6 22.3  489 150
2019 05 21 23  16 07 32.664   +09 55 58.61  1.1466 2.0837 149.6 22.3  494 150
2019 05 22 00  16 07 29.076   +09 55 43.17  1.1467 2.0837 149.6 22.3  499 150
2019 05 22 01  16 07 25.487   +09 55 27.69  1.1467 2.0838 149.6 22.3  505 150
2019 05 22 02  16 07 21.898   +09 55 12.17  1.1467 2.0838 149.6 22.3  510 150
2019 05 22 03  16 07 18.309   +09 54 56.60  1.1467 2.0838 149.6 22.3  516 150
2019 05 22 04  16 07 14.720   +09 54 40.99  1.1467 2.0838 149.6 22.3  521 150
2019 05 22 05  16 07 11.130   +09 54 25.34  1.1467 2.0839 149.6 22.3  527 150
2019 05 22 06  16 07 07.541   +09 54 09.65  1.1467 2.0839 149.6 22.3  533 150
2019 05 22 07  16 07 03.951   +09 53 53.92  1.1467 2.0839 149.6 22.3  538 150
2019 05 22 08  16 07 00.361   +09 53 38.14  1.1467 2.0839 149.6 22.3  544 150
2019 05 22 09  16 06 56.771   +09 53 22.32  1.1467 2.0840 149.6 22.3  550 150
2019 05 22 10  16 06 53.180   +09 53 06.46  1.1467 2.0840 149.7 22.3  555 150
2019 05 22 11  16 06 49.590   +09 52 50.56  1.1468 2.0840 149.7 22.3  561 150
2019 05 22 12  16 06 46.000   +09 52 34.62  1.1468 2.0841 149.7 22.3  567 150
2019 05 22 13  16 06 42.409   +09 52 18.63  1.1468 2.0841 149.7 22.3  573 150
2019 05 22 14  16 06 38.818   +09 52 02.61  1.1468 2.0841 149.7 22.3  578 150
2019 05 22 15  16 06 35.228   +09 51 46.54  1.1468 2.0841 149.7 22.3  584 150
2019 05 22 16  16 06 31.637   +09 51 30.43  1.1468 2.0842 149.7 22.3  590 150
2019 05 22 17  16 06 28.046   +09 51 14.27  1.1468 2.0842 149.7 22.3  596 150
2019 05 22 18  16 06 24.455   +09 50 58.08  1.1468 2.0842 149.7 22.3  602 150
2019 05 22 19  16 06 20.864   +09 50 41.84  1.1469 2.0842 149.7 22.3  608 150
2019 05 22 20  16 06 17.272   +09 50 25.56  1.1469 2.0843 149.7 22.3  614 150
2019 05 22 21  16 06 13.681   +09 50 09.24  1.1469 2.0843 149.7 22.3  620 150
2019 05 22 22  16 06 10.090   +09 49 52.88  1.1469 2.0843 149.7 22.3  626 150
2019 05 22 23  16 06 06.499   +09 49 36.47  1.1469 2.0843 149.7 22.3  632 150
2019 05 23 00  16 06 02.907   +09 49 20.03  1.1469 2.0844 149.7 22.3  639 150
2019 05 23 01  16 05 59.316   +09 49 03.54  1.1470 2.0844 149.7 22.3  645 150
2019 05 23 02  16 05 55.724   +09 48 47.01  1.1470 2.0844 149.7 22.3  651 150
2019 05 23 03  16 05 52.133   +09 48 30.44  1.1470 2.0845 149.7 22.3  657 150
2019 05 23 04  16 05 48.542   +09 48 13.82  1.1470 2.0845 149.7 22.3  664 150
2019 05 23 05  16 05 44.950   +09 47 57.17  1.1470 2.0845 149.7 22.3  670 150
2019 05 23 06  16 05 41.359   +09 47 40.47  1.1470 2.0845 149.7 22.3  676 150
2019 05 23 07  16 05 37.768   +09 47 23.73  1.1471 2.0846 149.7 22.3  683 150
2019 05 23 08  16 05 34.176   +09 47 06.95  1.1471 2.0846 149.7 22.3  689 150